"Pseudo-MPEC" for P12pBgz

Created 2026 Sep 5 9:35:09 UT using Find_Orb

Click here for an explanation of pseudo-MPECs

 
 Astrometry: 
     P12pBgz*0C2026 09 04.41478923 42 54.836-30 06 42.90   ~94CK 20.45wXNEOCPF51
     P12pBgz 0C2026 09 04.42543223 42 53.902-30 06 32.77   ~94CK 20.63wXNEOCPF51
     P12pBgz 0C2026 09 04.44690923 42 52.005-30 06 12.57   ~94CK 20.63wXNEOCPF51
     P12pBgz 0C2026 09 04.52357023 42 45.227-30 04 58.65   ~94MZ 20.38GVNEOCPF51
     P12pBgz 0C2026 09 04.52421923 42 45.175-30 04 57.95   ~94MZ 20.46GVNEOCPF51
     P12pBgz |C2026 09 05.15196023 41 54.570-29 54 37.40   ~954Z 20.8 GVNEOCP807
     P12pBgz |C2026 09 05.15980023 41 53.930-29 54 30.90   ~954Z 20.2 GVNEOCP807
     P12pBgz |C2026 09 05.16764023 41 53.220-29 54 22.70   ~954Z 20.0 GVNEOCP807

Station data:
(807) Cerro Tololo Observatory, La Serena  (S30.169133 W70.805900)  Chile.
   Observer R. Holmes. 0.61-m f/6.5 astrograph + CCD.
(F51) Pan-STARRS 1, Haleakala  (N20.707234 W156.255910)  US/Hawaii.
   Observers J. Herman, T. Lowe, P. Minguez, A. Schultz, I. Smith. Measurers
   K. Chambers, T. de Boer, J. Fairlamb, H. Gao, M. Huber, C.-C. Lin, E.
   Magnier, Y. Ramanjooloo, R. Wainscoat, R. Weryk. 1.8-m Ritchey-Chrétien +
   CCD.

Orbital elements:  P12pBgz
   Perihelion 2026 Jul 29.315459 +/- 30.1 TT =  7:34:15.6 (JD 2461250.815459)
Epoch 2026 Sep  5.0 TT = JDT 2461288.5   Earth MOID: 0.5826      AutoNEOCP
M   9.796527672 +/- 7               (J2000 ecliptic)
n   0.259961443 +/- 0.018           Peri.  299.968081 +/- 22
a   2.431439247 +/- 0.112           Node    18.782838 +/- 3.3
e   0.37157281 +/- 0.0455           Incl.   15.571858 +/- 1.0
P   3.79136                H 19.88  G  0.15   U 10.1
q 1.527982519 +/- 0.0491    Q 3.334895976 +/- 0.261
From 8 observations 2026 Sept. 4-5 (18.1 hr); mean residual 0".22
Residuals in arcseconds: 
260904 F51  .03-  .00     260904 F51  .04-  .03-    260905 807  .30+  .56-    
260904 F51  .02+  .08+    260904 F51  .03+  .04+    260905 807  .02+  .10+    
260904 F51  .01+  .09-    260905 807  .32-  .47+    

Ephemerides (geocentric):
Date (UTC) HH   RA             Dec           delta  r     elong  mag " sig PA
---- --------  ------------   ------------  ------ ------ -----  --- --------
2026 09 05 10  23 41 32.389   -29 50 18.82  .58956 1.5615 154.6 20.6 .656 120
2026 09 05 11  23 41 28.963   -29 49 37.74  .58960 1.5615 154.6 20.6 .772 121
2026 09 05 12  23 41 25.536   -29 48 56.61  .58963 1.5616 154.6 20.6 .896 121
2026 09 05 13  23 41 22.108   -29 48 15.42  .58967 1.5617 154.7 20.6 1.03 122
2026 09 05 14  23 41 18.680   -29 47 34.19  .58970 1.5617 154.7 20.6 1.17 123
2026 09 05 15  23 41 15.251   -29 46 52.91  .58974 1.5618 154.7 20.6 1.32 124
2026 09 05 16  23 41 11.821   -29 46 11.58  .58978 1.5619 154.7 20.6 1.47 124
2026 09 05 17  23 41 08.390   -29 45 30.21  .58981 1.5620 154.7 20.6 1.64 125
2026 09 05 18  23 41 04.958   -29 44 48.78  .58985 1.5620 154.7 20.6 1.81 125
2026 09 05 19  23 41 01.526   -29 44 07.30  .58989 1.5621 154.8 20.6 1.99 125
2026 09 05 20  23 40 58.093   -29 43 25.78  .58993 1.5622 154.8 20.6 2.18 126
2026 09 05 21  23 40 54.659   -29 42 44.20  .58997 1.5623 154.8 20.6 2.38 126
2026 09 05 22  23 40 51.225   -29 42 02.58  .59000 1.5623 154.8 20.6 2.58 126
2026 09 05 23  23 40 47.790   -29 41 20.90  .59004 1.5624 154.8 20.6 2.80 127
2026 09 06 00  23 40 44.354   -29 40 39.18  .59008 1.5625 154.8 20.6 3.02 127
2026 09 06 01  23 40 40.917   -29 39 57.41  .59012 1.5625 154.8 20.6 3.25 127
2026 09 06 02  23 40 37.480   -29 39 15.59  .59016 1.5626 154.9 20.6 3.49 128
2026 09 06 03  23 40 34.042   -29 38 33.72  .59020 1.5627 154.9 20.6 3.73 128
2026 09 06 04  23 40 30.604   -29 37 51.80  .59024 1.5628 154.9 20.6 3.99 128
2026 09 06 05  23 40 27.165   -29 37 09.84  .59028 1.5628 154.9 20.6 4.25 128
2026 09 06 06  23 40 23.725   -29 36 27.82  .59032 1.5629 154.9 20.6 4.52 128
2026 09 06 07  23 40 20.285   -29 35 45.76  .59037 1.5630 154.9 20.6 4.80 129
2026 09 06 08  23 40 16.844   -29 35 03.64  .59041 1.5631 155.0 20.6 5.09 129
2026 09 06 09  23 40 13.403   -29 34 21.48  .59045 1.5631 155.0 20.6 5.38 129
2026 09 06 10  23 40 09.961   -29 33 39.27  .59049 1.5632 155.0 20.6 5.69 129
2026 09 06 11  23 40 06.518   -29 32 57.01  .59053 1.5633 155.0 20.6 6.00 129
2026 09 06 12  23 40 03.075   -29 32 14.70  .59058 1.5633 155.0 20.6 6.32 129
2026 09 06 13  23 39 59.632   -29 31 32.34  .59062 1.5634 155.0 20.6 6.65 130
2026 09 06 14  23 39 56.188   -29 30 49.93  .59066 1.5635 155.0 20.6 6.99 130
2026 09 06 15  23 39 52.743   -29 30 07.48  .59071 1.5636 155.1 20.6 7.33 130
2026 09 06 16  23 39 49.299   -29 29 24.98  .59075 1.5636 155.1 20.6 7.68 130
2026 09 06 17  23 39 45.853   -29 28 42.42  .59080 1.5637 155.1 20.6 8.05 130
2026 09 06 18  23 39 42.407   -29 27 59.82  .59084 1.5638 155.1 20.6 8.41 130
2026 09 06 19  23 39 38.961   -29 27 17.17  .59089 1.5639 155.1 20.6 8.79 130
2026 09 06 20  23 39 35.515   -29 26 34.47  .59093 1.5639 155.1 20.6 9.18 130
2026 09 06 21  23 39 32.068   -29 25 51.73  .59098 1.5640 155.2 20.6 9.57 131
2026 09 06 22  23 39 28.620   -29 25 08.93  .59102 1.5641 155.2 20.6 9.97 131
2026 09 06 23  23 39 25.172   -29 24 26.09  .59107 1.5642 155.2 20.6 10.4 131
2026 09 07 00  23 39 21.724   -29 23 43.20  .59112 1.5642 155.2 20.6 10.8 131
2026 09 07 01  23 39 18.276   -29 23 00.25  .59116 1.5643 155.2 20.6 11.2 131
2026 09 07 02  23 39 14.827   -29 22 17.27  .59121 1.5644 155.2 20.6 11.7 131
2026 09 07 03  23 39 11.378   -29 21 34.23  .59126 1.5645 155.2 20.6 12.1 131
2026 09 07 04  23 39 07.928   -29 20 51.14  .59131 1.5645 155.2 20.6 12.6 131
2026 09 07 05  23 39 04.479   -29 20 08.01  .59136 1.5646 155.3 20.6 13.0 131
2026 09 07 06  23 39 01.029   -29 19 24.83  .59140 1.5647 155.3 20.6 13.5 131
2026 09 07 07  23 38 57.578   -29 18 41.60  .59145 1.5648 155.3 20.6 14.0 132
2026 09 07 08  23 38 54.128   -29 17 58.32  .59150 1.5648 155.3 20.6 14.4 132
2026 09 07 09  23 38 50.677   -29 17 14.99  .59155 1.5649 155.3 20.6 14.9 132